This demonstration page uses our WeatherBlox Daily Observations layout. Learn more.

Left ArrowRight Arrow

Hourly Observations for January 31, 2017

Temp ( °F °C ) Dew Point ( °F °C ) Humidity (%) Winds ( mph kmh ) Pressure ( in mb ) Visibility ( mi km ) Precip ( " mm )
12:58 am 00:58 Clear 39 4.1 29 -1.6 67 67 WNW 13 20 29.92 1013 10 16 0.00 0.00
1:58 am 01:58 Clear 38 3.5 30 -1.2 72 72 WNW 13 20 29.93 1014 10 16 0.00 0.00
2:58 am 02:58 Clear 34 1.1 30 -1.1 85 85 NW 3 6 29.95 1014 10 16 0.00 0.00
3:58 am 03:58 Partly Cloudy 33 0.3 32 -0.2 96 96 WNW 8 13 29.95 1014 10 16 0.00 0.00
4:58 am 04:58 Mostly Clear 35 1.9 33 0.4 90 90 NW 8 13 29.97 1015 10 16 0.00 0.00
5:58 am 05:58 Clear 36 2.3 32 0.1 86 86 W 7 11 29.98 1015 10 16 0.00 0.00
6:58 am 06:58 Partly Cloudy 33 0.6 32 0.2 97 97 WNW 6 9 29.98 1015 10 16 0.00 0.00
7:58 am 07:58 Cloudy 35 1.5 34 1 97 97 WNW 7 11 29.99 1016 10 16 0.00 0.00
8:58 am 08:58 Cloudy 38 3.6 33 0.3 79 79 NW 8 13 30.00 1016 10 16 0.00 0.00
9:58 am 09:58 Mostly Cloudy 40 4.5 32 0.2 74 74 NW 10 17 30.00 1016 10 16 0.00 0.00
10:58 am 10:58 Mostly Cloudy 42 5.3 32 0.2 70 70 WNW 8 13 30.03 1017 10 16 0.00 0.00
11:58 am 11:58 Cloudy 42 5.8 33 0.4 69 69 WNW 8 13 30.03 1017 10 16 0.00 0.00
12:58 pm 12:58 Mostly Sunny 44 6.4 33 0.4 66 66 WNW 8 13 30.01 1016 10 16 0.00 0.00
1:58 pm 13:58 Mostly Cloudy 43 6.1 32 -0.2 64 64 NW 12 19 29.99 1016 10 16 0.00 0.00
2:58 pm 14:58 Partly Cloudy 42 5.8 31 -0.3 65 65 WNW 7 11 30.00 1016 10 16 0.00 0.00
3:58 pm 15:58 Cloudy 41 4.8 32 0 71 71 WNW 7 11 30.01 1016 10 16 0.00 0.00
4:58 pm 16:58 Cloudy 40 4.6 27 -2.8 59 59 NW 3 6 30.01 1016 10 16 0.00 0.00
5:58 pm 17:58 Cloudy 38 3.5 27 -2.6 65 65 NNW 7 11 30.03 1017 10 16 0.00 0.00
6:58 pm 18:58 Cloudy 38 3.5 28 -2.2 67 67 NNW 8 13 30.05 1018 10 16 0.00 0.00
7:58 pm 19:58 Cloudy 38 3.3 28 -2 69 69 NNW 8 13 30.07 1018 10 16 0.00 0.00
8:58 pm 20:58 Mostly Cloudy 38 3.1 29 -1.6 72 72 NNW 8 13 30.07 1018 10 16 0.00 0.00
9:58 pm 21:58 Mostly Cloudy 37 2.9 27 -2.6 67 67 N 9 15 30.09 1019 10 16 0.00 0.00
10:12 pm 22:12 Mostly Cloudy with Light Rain 37 3 27 -3 65 65 N 7 11 30.09 1019 10 16 0.00 0.00
10:21 pm 22:21 Mostly Cloudy 37 3 25 -4 60 60 N 9 15 30.09 1019 10 16 0.00 0.00
10:58 pm 22:58 Cloudy 36 2.3 27 -2.9 69 69 N 6 9 30.11 1020 10 16 0.00 0.03
11:58 pm 23:58 Mostly Cloudy 35 1.8 30 -1.3 80 80 NW 8 13 30.14 1021 10 16 0.00 0.00

Powered by AerisWeather